Temperature
1 1 1 1 0 0 0 0 0 0 0 0 0 0 0 0 0 0 0 0 0 0 0 0 0 0 0 0 -0 -0 -0 -0 -0 -0 0 0 0 1 1 1 1 1 1
0 -0 -0 -0 -0 -0 -0 -0 -0 -0 -0 -1 -1 -1 -1 -1 -1 -0 -0 -0 -0 -0 -1 -1 -1 -1 -1 -1 -1 -1 -1 -1 -1 -1 -0 -0 -0 -0 -0 -0 -0 -0 0
-1 -1 -1 -1 -1 -1 -1 -1 -1 -1 -1 -1 -1 -1 -1 -1 -1 -1 -1 -1 -1 -1 -1 -1 -1 -1 -1 -1 -2 -2 -2 -2 -2 -2 -1 -1 -1 -1 -1 -1 -1 -1 -1
-1 -2 -2 -2 -2 -2 -2 -2 -2 -2 -2 -2 -2 -2 -2 -2 -2 -2 -2 -2 -2 -2 -2 -2 -2 -2 -2 -2 -2 -2 -2 -2 -2 -2 -2 -2 -2 -2 -2 -2 -2 -2 -1
-2 -2 -2 -2 -2 -2 -3 -3 -3 -3 -3 -3 -3 -3 -3 -3 -3 -3 -3 -3 -3 -3 -3 -3 -3 -3 -3 -3 -3 -3 -3 -3 -3 -3 -3 -3 -3 -3 -3 -3 -3 -3 -2
-3 -3 -3 -3 -3 -3 -3 -3 -3 -3 -3 -3 -4 -4 -4 -4 -4 -4 -4 -4 -4 -4 -4 -4 -4 -3 -3 -4 -3 -3 -4 -4 -4 -4 -4 -4 -3 -3 -3 -4 -4 -4 -4
-3 -4 -4 -4 -4 -4 -4 -4 -4 -4 -4 -4 -4 -4 -4 -4 -5 -5 -5 -5 -5 -5 -5 -5 -4 -4 -4 -4 -4 -4 -4 -5 -5 -4 -4 -4 -4 -4 -4 -4 -4 -4 -4
-4 -4 -4 -4 -5 -5 -5 -5 -5 -5 -5 -5 -5 -5 -5 -5 -5 -6 -6 -6 -6 -5 -5 -5 -5 -5 -5 -5 -5 -5 -5 -5 -5 -5 -5 -5 -5 -5 -5 -5 -5 -5 -5
-5 -5 -5 -6 -6 -6 -6 -6 -6 -6 -6 -6 -6 -6 -6 -6 -6 -6 -7 -7 -7 -6 -6 -6 -6 -6 -6 -6 -6 -6 -6 -6 -6 -6 -6 -6 -6 -5 -5 -6 -6 -6 -6
-6 -6 -6 -7 -7 -7 -7 -7 -7 -7 -7 -7 -7 -7 -7 -7 -7 -7 -7 -7 -7 -7 -7 -7 -7 -7 -7 -7 -7 -7 -6 -6 -6 -6 -6 -6 -6 -6 -6 -6 -6 -7 -7
-7 -7 -7 -7 -7 -8 -8 -8 -8 -8 -8 -8 -8 -8 -8 -8 -8 -8 -8 -8 -8 -8 -8 -8 -7 -7 -7 -7 -7 -7 -7 -7 -7 -7 -7 -7 -7 -7 -7 -7 -7 -7 -7
-8 -8 -8 -8 -8 -9 -9 -9 -9 -9 -9 -9 -9 -9 -9 -9 -9 -9 -9 -9 -9 -9 -9 -8 -8 -8 -8 -8 -8 -8 -8 -8 -8 -8 -8 -8 -8 -8 -8 -8 -7 -7 -8
-9 -9 -9 -9 -9 -10 -10 -10 -10 -10 -10 -10 -10 -10 -10 -10 -10 -9 -9 -9 -10 -10 -9 -9 -9 -9 -9 -9 -9 -9 -9 -9 -9 -9 -9 -9 -9 -9 -9 -9 -8 -8 -8
-9 -10 -10 -10 -10 -10 -11 -11 -11 -11 -11 -11 -11 -11 -11 -11 -10 -10 -10 -10 -10 -10 -10 -10 -10 -10 -10 -10 -10 -10 -10 -10 -10 -10 -10 -10 -10 -9 -9 -9 -9 -9 -9
-10 -11 -11 -11 -11 -11 -11 -12 -12 -12 -12 -12 -12 -12 -12 -11 -11 -11 -11 -11 -11 -11 -11 -11 -11 -11 -11 -10 -10 -10 -10 -10 -10 -10 -10 -10 -10 -10 -10 -10 -10 -10 -10
-11 -11 -12 -12 -12 -12 -12 -12 -13 -13 -13 -13 -13 -12 -12 -12 -12 -12 -12 -12 -12 -12 -12 -12 -12 -12 -12 -11 -11 -11 -11 -11 -11 -11 -11 -11 -11 -11 -11 -11 -11 -11 -11
-12 -12 -12 -13 -13 -13 -13 -13 -13 -13 -13 -13 -13 -13 -13 -13 -13 -13 -13 -13 -12 -12 -12 -12 -12 -12 -12 -12 -12 -12 -12 -12 -12 -12 -12 -12 -11 -11 -11 -11 -11 -11 -11
-13 -13 -13 -13 -14 -14 -14 -14 -14 -14 -14 -14 -14 -14 -14 -14 -14 -13 -13 -13 -13 -13 -13 -13 -13 -13 -13 -13 -13 -13 -13 -13 -12 -12 -12 -12 -12 -12 -12 -12 -12 -12 -12
-13 -13 -14 -14 -14 -15 -15 -15 -15 -15 -15 -14 -14 -14 -14 -14 -14 -14 -14 -14 -14 -14 -14 -14 -14 -14 -13 -13 -13 -13 -13 -13 -13 -13 -13 -13 -13 -13 -12 -12 -12 -12 -12
-14 -14 -15 -15 -15 -15 -15 -15 -15 -15 -15 -15 -15 -15 -15 -15 -15 -14 -14 -15 -15 -14 -14 -14 -14 -14 -14 -14 -14 -14 -14 -14 -14 -13 -13 -13 -13 -13 -13 -13 -13 -13 -13
-15 -15 -15 -15 -15 -15 -15 -16 -16 -16 -16 -16 -15 -15 -16 -15 -15 -15 -15 -15 -15 -15 -15 -15 -15 -14 -14 -14 -14 -14 -14 -14 -14 -14 -14 -14 -14 -14 -14 -13 -13 -13 -13
-15 -15 -15 -15 -16 -16 -16 -16 -16 -16 -16 -16 -16 -16 -16 -16 -16 -16 -16 -15 -15 -15 -15 -15 -15 -15 -15 -15 -15 -15 -15 -15 -15 -15 -14 -14 -14 -14 -14 -14 -14 -14 -14
-16 -16 -16 -16 -16 -16 -16 -16 -17 -17 -17 -16 -16 -16 -16 -16 -16 -16 -16 -16 -16 -16 -16 -16 -15 -15 -15 -15 -15 -15 -15 -15 -15 -15 -15 -15 -15 -15 -15 -14 -14 -14 -14
-16 -16 -16 -16 -17 -17 -17 -17 -17 -17 -17 -17 -17 -17 -17 -17 -17 -17 -16 -16 -16 -16 -16 -16 -16 -16 -16 -16 -15 -15 -15 -15 -15 -15 -15 -15 -15 -15 -15 -15 -15 -15 -15
-17 -17 -17 -17 -17 -17 -17 -17 -17 -17 -17 -17 -17 -17 -17 -17 -17 -17 -17 -17 -17 -17 -16 -16 -16 -16 -16 -16 -16 -16 -16 -15 -15 -16 -16 -16 -15 -15 -15 -15 -15 -15 -15
-17 -17 -17 -17 -18 -18 -18 -18 -18 -18 -18 -18 -18 -18 -18 -18 -18 -17 -17 -17 -17 -17 -17 -17 -17 -17 -16 -16 -16 -16 -16 -16 -16 -16 -16 -16 -16 -16 -16 -15 -15 -15 -15
Wind_Speed
1 1 1 1 1 0 1 1 2 1 1 1 2 2 2 2 2 3 3 3 4 4 4 4 5 3 3 3 3 3 3 3 6 4 3 2 3 4 6 7 8 8 8
0 1 1 1 0 0 1 1 1 1 1 2 2 2 2 2 2 3 4 4 4 5 5 5 5 4 4 4 4 4 4 4 5 6 4 3 4 4 4 5 6 7 7
0 1 1 1 1 1 1 2 1 1 2 2 2 2 3 3 3 3 3 4 5 5 5 5 5 5 5 4 5 5 4 4 3 4 5 3 3 3 3 4 5 5 7
1 1 1 2 2 2 2 2 2 2 2 2 2 3 3 3 3 3 4 4 5 5 5 6 6 6 6 6 5 6 5 5 4 4 4 4 3 3 2 3 4 3 4
1 1 2 2 1 1 2 2 2 2 2 2 2 3 3 3 4 4 4 5 5 5 5 5 6 7 8 7 6 5 5 5 4 4 5 4 4 3 3 3 5 4 4
1 2 2 1 1 2 2 2 2 2 2 2 2 3 3 4 6 7 5 4 4 5 5 5 6 7 8 9 10 9 7 6 6 6 6 6 6 5 4 4 4 4 4
2 2 2 1 2 2 2 2 2 2 2 3 3 3 4 6 7 8 8 5 5 5 6 5 6 6 8 6 8 9 9 11 11 7 7 7 6 6 5 5 6 6 6
2 2 2 2 2 2 2 3 3 3 3 3 4 4 4 6 8 8 9 5 5 6 6 6 6 7 7 7 6 6 7 8 9 7 7 8 7 6 6 6 7 6 4
3 3 3 3 3 3 3 3 3 3 3 3 4 3 4 6 8 9 8 4 5 6 6 6 6 6 10 10 7 7 7 7 10 11 11 10 11 10 8 4 4 4 5
4 4 3 3 3 3 4 3 3 3 3 4 4 4 5 6 8 9 8 4 5 5 5 6 9 9 11 11 7 7 7 7 5 6 7 8 7 8 9 6 5 5 5
3 2 2 3 3 3 3 3 2 3 3 3 4 5 5 7 8 9 8 4 5 5 5 5 6 10 12 11 9 7 9 7 4 5 5 5 5 4 4 5 5 6 6
1 2 2 2 2 2 2 2 3 3 3 4 4 5 5 6 7 8 9 9 8 5 5 5 6 10 10 10 8 8 9 7 3 4 5 5 5 5 5 5 7 8 8
1 1 2 2 2 2 2 3 3 3 3 4 4 5 5 4 5 10 10 11 11 7 6 9 9 9 8 7 8 9 7 4 4 5 5 6 5 5 5 5 6 6 7
1 2 2 2 2 2 3 3 3 3 4 4 5 5 5 5 5 5 5 6 8 8 6 7 8 8 6 6 6 5 4 4 5 5 5 5 4 4 5 4 5 4 4
2 2 2 2 3 3 3 3 4 5 5 5 5 5 5 6 7 9 7 5 4 4 4 3 3 3 3 3 3 4 3 4 4 4 4 4 4 4 5 4 4 4 5
2 3 2 2 3 3 3 4 7 7 9 10 10 9 8 10 11 11 10 10 9 7 4 3 4 4 4 4 4 4 4 4 4 4 4 5 5 4 4 4 4 4 6
3 3 3 3 3 3 3 4 5 6 8 9 10 11 10 11 11 11 10 9 8 6 3 3 4 4 4 4 4 4 4 4 4 4 4 4 4 4 4 4 4 4 5
3 4 3 3 3 3 3 4 4 4 5 5 7 10 11 11 11 10 9 6 4 4 3 4 4 5 5 5 5 5 5 4 4 4 4 4 4 4 4 4 4 5 5
3 3 3 3 3 3 3 4 4 4 5 5 5 6 9 9 9 9 7 3 3 4 4 4 4 5 4 5 5 5 5 5 5 4 4 4 4 4 5 5 5 7 6
3 5 4 3 3 3 3 3 4 4 4 4 5 5 5 5 4 4 4 3 3 4 4 4 4 4 4 4 4 4 4 4 4 4 4 4 4 4 5 5 5 5 5
3 4 5 4 3 3 3 4 4 4 4 5 5 6 7 4 3 4 4 4 4 4 4 4 4 4 4 4 4 5 5 5 4 4 4 4 4 4 5 5 5 5 5
3 3 3 3 3 3 4 3 3 4 5 5 5 6 9 4 3 4 4 4 4 4 5 4 4 4 4 4 4 5 5 5 5 5 4 4 4 5 5 5 5 5 5
3 3 3 3 3 5 5 3 3 4 4 5 5 5 4 4 4 4 5 5 5 5 5 5 5 5 6 7 7 6 5 6 6 5 5 5 5 5 5 5 6 6 6
3 3 4 4 3 3 4 4 4 4 4 5 5 4 4 4 5 5 5 5 5 5 6 6 6 7 8 8 8 8 8 9 8 7 7 6 6 6 5 5 6 6 6
3 3 3 3 4 4 4 4 4 5 5 5 5 5 5 5 5 5 5 5 5 6 7 7 7 8 9 10 10 10 10 11 10 9 8 6 6 6 6 6 6 6 6
3 3 3 3 4 4 4 5 5 5 5 5 5 5 5 5 5 5 5 5 5 6 7 7 8 9 10 11 12 13 12 12 11 11 8 6 5 5 5 5 6 6 6
Wind_Direction
210 232 222 217 224 185 205 230 241 256 262 261 257 254 252 252 245 230 231 230 233 240 240 234 241 242 235 229 226 228 230 227 247 266 264 276 270 275 286 279 280 269 263
285 256 240 239 225 226 258 262 264 256 255 256 255 250 252 256 255 245 243 240 237 242 245 243 246 243 242 238 233 236 238 233 238 257 267 264 268 262 270 278 282 278 269
310 272 269 267 251 250 263 270 270 269 273 270 262 248 249 252 256 256 254 248 242 242 240 240 245 241 243 240 236 237 239 245 240 247 263 272 274 270 277 281 281 271 268
259 253 255 261 261 264 274 268 260 260 260 265 267 259 253 252 254 257 258 261 256 251 246 242 242 238 239 237 240 236 236 237 240 243 256 265 263 261 252 273 291 266 272
240 253 267 277 282 287 283 275 272 267 268 274 281 280 273 259 250 250 252 256 259 264 259 251 251 250 247 242 243 237 233 236 236 241 254 263 259 255 250 253 273 277 270
243 260 279 283 285 282 280 285 283 280 280 279 276 272 274 272 269 265 261 257 259 260 266 263 261 259 258 254 255 252 244 241 236 236 249 249 255 253 253 254 266 274 268
242 256 268 271 276 280 281 283 276 275 280 273 271 264 266 274 275 269 265 261 258 259 259 263 264 261 262 255 260 263 257 255 251 243 242 248 249 241 239 252 256 254 260
243 253 257 260 266 275 276 275 276 276 271 270 273 268 273 281 283 280 274 266 260 260 259 255 259 259 255 249 247 252 255 256 256 251 240 245 246 240 237 240 249 258 272
239 247 249 247 251 255 261 267 276 276 274 273 274 272 276 288 288 285 283 274 265 263 263 259 259 258 262 257 247 245 254 259 265 263 264 263 262 259 254 244 247 244 262
248 250 247 241 239 247 255 266 272 268 268 274 283 281 277 282 288 287 285 270 268 270 268 263 264 264 267 263 244 236 246 252 254 263 268 269 269 260 252 236 232 236 253
256 258 255 250 246 250 258 269 270 269 274 271 276 282 280 282 289 287 282 273 264 267 271 272 269 271 270 271 265 246 250 258 246 248 252 256 257 253 247 244 237 232 238
250 256 270 271 265 264 260 274 274 265 268 269 270 279 276 280 287 287 283 279 277 268 268 272 271 274 278 279 280 274 273 273 252 251 249 249 250 252 252 254 253 248 244
266 264 276 280 278 270 257 264 271 263 259 270 269 273 280 281 284 288 287 285 281 274 268 270 276 281 284 283 283 285 282 259 247 249 251 252 251 251 258 260 260 258 259
254 267 268 267 274 274 270 264 264 259 259 265 269 272 278 281 279 282 280 282 282 279 279 279 282 284 282 280 283 285 277 262 255 254 256 261 257 250 251 252 255 253 260
260 259 258 261 264 269 272 267 266 258 255 260 259 263 267 272 276 282 282 276 270 265 270 268 267 271 268 271 273 270 266 266 263 260 261 262 264 258 255 251 251 252 246
266 263 258 258 261 266 273 287 284 280 280 278 276 276 272 274 284 288 289 288 290 287 286 267 262 261 261 265 268 272 269 266 265 264 263 264 261 255 259 261 253 250 251
256 261 259 260 261 266 272 278 292 299 294 290 288 288 290 288 287 289 291 293 292 289 273 271 266 261 258 259 259 258 260 262 262 260 262 264 263 260 257 258 256 254 258
266 269 268 257 256 259 264 271 277 285 295 297 300 300 302 298 294 294 299 305 297 284 257 258 263 267 260 254 252 255 259 261 259 259 257 255 252 255 259 257 256 258 259
270 268 265 261 261 262 266 271 274 278 282 291 301 305 309 310 312 312 310 295 284 278 265 264 265 264 268 263 255 253 253 256 257 257 256 255 250 248 253 255 256 262 269
268 277 278 271 267 267 267 269 272 275 279 283 287 293 303 306 306 311 311 297 290 287 284 275 272 270 270 271 268 260 258 259 257 253 253 254 252 249 249 252 254 258 260
266 273 284 285 273 269 267 266 267 269 272 277 280 285 294 291 289 292 292 289 283 281 281 280 278 273 269 268 265 260 258 260 258 253 251 252 250 252 252 252 255 257 261
256 262 265 269 271 270 270 266 267 269 271 277 286 292 298 296 285 283 283 283 281 278 276 276 278 278 271 265 262 258 257 258 256 254 251 252 252 252 253 253 255 258 259
253 258 265 267 268 274 282 278 273 272 274 277 281 286 289 284 281 279 280 283 285 283 281 276 276 279 280 276 267 257 252 256 255 250 248 249 249 249 250 252 253 258 260
245 248 256 262 263 262 267 272 274 275 276 276 278 278 278 278 280 280 279 281 282 282 281 278 275 277 282 286 281 273 266 265 262 252 239 237 243 249 251 254 254 255 258
243 248 254 258 261 264 267 270 271 272 275 275 275 276 277 277 278 279 280 279 279 279 281 280 279 279 282 284 283 279 278 277 272 263 247 238 241 243 247 253 256 259 259
244 249 255 262 264 263 264 267 269 270 272 274 274 274 275 275 275 276 278 279 279 279 280 279 279 281 283 283 283 283 281 279 277 273 260 244 239 244 247 252 252 253 256
Height
1474 1474 1474 1474 1475 1475 1475 1476 1476 1476 1477 1477 1478 1478 1479 1479 1480 1480 1480 1481 1482 1483 1484 1485 1485 1486 1487 1487 1488 1489 1489 1490 1488 1487 1489 1489 1490 1490 1490 1490 1491 1492 1492
1471 1471 1471 1471 1471 1471 1471 1472 1472 1472 1472 1473 1473 1473 1474 1474 1475 1475 1475 1476 1476 1476 1477 1478 1479 1480 1481 1481 1482 1482 1483 1483 1483 1482 1482 1483 1483 1484 1484 1484 1485 1486 1486
1468 1467 1467 1467 1467 1467 1467 1468 1468 1468 1468 1468 1468 1468 1468 1469 1469 1470 1470 1470 1470 1471 1472 1472 1473 1474 1474 1475 1476 1476 1477 1477 1477 1477 1476 1477 1477 1478 1478 1478 1479 1479 1480
1464 1464 1463 1463 1463 1463 1463 1463 1464 1464 1464 1464 1464 1464 1464 1464 1464 1464 1465 1465 1465 1465 1466 1466 1467 1467 1468 1469 1470 1470 1471 1471 1471 1471 1470 1470 1471 1471 1472 1471 1471 1473 1473
1460 1460 1460 1460 1459 1459 1459 1459 1459 1459 1459 1459 1459 1459 1459 1459 1459 1459 1459 1459 1459 1459 1460 1460 1461 1462 1462 1462 1463 1464 1464 1464 1465 1465 1464 1464 1464 1465 1465 1465 1466 1466 1467
1457 1456 1456 1455 1455 1455 1455 1454 1454 1454 1454 1454 1454 1454 1454 1454 1454 1454 1454 1454 1454 1454 1454 1454 1455 1455 1456 1456 1457 1457 1458 1459 1458 1458 1458 1458 1458 1459 1460 1460 1460 1460 1459
1453 1452 1452 1451 1451 1451 1450 1450 1450 1450 1449 1449 1449 1449 1448 1448 1449 1449 1449 1449 1448 1448 1448 1448 1448 1449 1449 1449 1450 1450 1451 1452 1453 1453 1452 1452 1452 1454 1454 1454 1455 1455 1454
1449 1448 1448 1447 1447 1447 1446 1446 1446 1445 1445 1444 1444 1444 1443 1443 1443 1443 1443 1443 1442 1442 1442 1442 1442 1443 1443 1443 1443 1443 1444 1445 1446 1447 1446 1446 1447 1448 1449 1449 1449 1449 1448
1445 1444 1444 1444 1443 1443 1442 1442 1441 1441 1440 1439 1439 1439 1438 1438 1438 1438 1438 1437 1437 1436 1437 1437 1437 1436 1437 1437 1438 1437 1437 1438 1439 1440 1440 1440 1441 1441 1442 1443 1442 1442 1440
1441 1440 1440 1440 1439 1439 1438 1438 1437 1436 1435 1435 1434 1434 1433 1433 1433 1432 1432 1432 1431 1431 1431 1431 1431 1431 1431 1431 1431 1431 1430 1431 1432 1432 1433 1433 1433 1434 1435 1436 1436 1435 1434
1437 1437 1436 1436 1436 1435 1434 1434 1433 1432 1431 1430 1429 1429 1428 1427 1427 1427 1427 1426 1426 1425 1425 1424 1424 1425 1425 1425 1425 1425 1424 1425 1425 1425 1425 1425 1426 1427 1427 1428 1429 1429 1428
1433 1432 1432 1432 1432 1431 1430 1429 1428 1427 1426 1425 1424 1423 1423 1422 1422 1421 1421 1421 1421 1420 1419 1418 1419 1419 1419 1419 1419 1418 1419 1419 1419 1418 1418 1418 1418 1419 1420 1420 1421 1422 1422
1428 1428 1428 1428 1427 1426 1425 1424 1423 1423 1422 1420 1420 1418 1418 1417 1417 1416 1416 1415 1414 1414 1413 1413 1413 1413 1413 1412 1412 1412 1412 1412 1412 1412 1411 1411 1412 1412 1413 1413 1413 1414 1414
1424 1423 1423 1423 1422 1421 1421 1420 1419 1417 1417 1416 1415 1414 1413 1412 1412 1411 1410 1409 1408 1408 1407 1407 1407 1407 1407 1406 1406 1406 1406 1406 1406 1406 1405 1405 1406 1406 1406 1406 1407 1406 1406
1420 1419 1419 1418 1417 1416 1416 1415 1414 1413 1413 1412 1411 1410 1409 1408 1407 1407 1405 1404 1403 1403 1402 1401 1401 1401 1400 1400 1400 1400 1400 1400 1400 1400 1400 1399 1399 1399 1400 1400 1400 1400 1399
1416 1415 1414 1414 1413 1412 1411 1410 1409 1409 1408 1407 1407 1406 1404 1404 1403 1401 1400 1399 1399 1398 1397 1395 1395 1395 1394 1394 1394 1394 1394 1394 1394 1394 1394 1393 1393 1393 1393 1394 1394 1394 1393
1412 1411 1410 1409 1409 1408 1407 1405 1404 1403 1402 1402 1401 1400 1399 1398 1397 1396 1395 1394 1394 1393 1392 1390 1389 1389 1389 1389 1388 1388 1388 1388 1388 1388 1388 1387 1388 1388 1388 1388 1388 1388 1387
1408 1407 1406 1406 1405 1404 1403 1402 1401 1399 1397 1396 1396 1395 1394 1393 1392 1391 1390 1389 1388 1387 1386 1385 1384 1384 1383 1383 1383 1383 1383 1383 1382 1382 1382 1382 1382 1382 1382 1382 1382 1381 1381
1404 1403 1403 1402 1401 1400 1399 1398 1397 1396 1394 1392 1391 1390 1390 1388 1387 1386 1385 1384 1383 1382 1381 1380 1379 1379 1378 1378 1378 1377 1377 1377 1377 1377 1377 1376 1376 1376 1376 1376 1376 1375 1375
1400 1400 1399 1398 1397 1396 1395 1394 1393 1392 1390 1389 1387 1386 1385 1384 1382 1381 1381 1380 1378 1377 1376 1376 1375 1374 1374 1373 1373 1372 1372 1371 1371 1371 1371 1371 1371 1371 1371 1370 1370 1369 1368
1397 1396 1396 1395 1394 1393 1392 1391 1389 1388 1387 1385 1384 1383 1382 1380 1378 1377 1376 1375 1374 1373 1372 1371 1371 1370 1369 1368 1368 1367 1366 1366 1366 1366 1365 1365 1365 1365 1365 1365 1364 1364 1363
1393 1392 1392 1391 1390 1389 1388 1387 1386 1384 1383 1381 1380 1379 1378 1376 1375 1373 1372 1371 1370 1369 1368 1367 1366 1366 1365 1364 1363 1362 1361 1361 1361 1360 1360 1360 1359 1359 1359 1359 1358 1358 1358
1390 1389 1388 1387 1386 1385 1384 1383 1382 1381 1379 1378 1376 1375 1373 1372 1371 1369 1368 1367 1366 1365 1364 1363 1362 1361 1360 1359 1358 1357 1357 1356 1356 1355 1355 1354 1354 1354 1353 1353 1353 1353 1352
1386 1385 1384 1383 1383 1381 1380 1379 1378 1377 1375 1374 1372 1371 1369 1368 1366 1365 1364 1363 1362 1360 1359 1358 1357 1356 1355 1354 1353 1352 1352 1351 1351 1350 1349 1349 1349 1348 1348 1348 1348 1348 1347
1382 1382 1381 1380 1379 1377 1376 1375 1374 1372 1371 1370 1368 1367 1365 1364 1362 1360 1359 1358 1357 1356 1354 1353 1352 1351 1350 1349 1348 1347 1347 1346 1346 1345 1345 1345 1344 1344 1344 1343 1343 1343 1342
1379 1378 1377 1375 1374 1373 1372 1371 1369 1368 1367 1365 1364 1363 1361 1359 1358 1356 1355 1353 1352 1351 1349 1348 1347 1346 1345 1344 1343 1342 1342 1341 1341 1341 1341 1340 1340 1339 1339 1338 1338 1338 1337